| time (UTC) | temp C | wind direction | speed KPH | gust KPH | rain 1hr cm | rain 24hr cm | rain mn cm | humidity % | barometer mb |
| 20260503225844 | 13 | 300 | 6.4 | 9.7 | 0.00 | 0.00 | 0.00 | 35 | 1016.6 |
| 20260503225339 | 13 | 145 | 1.6 | 4.8 | 0.00 | 0.00 | 0.00 | 34 | 1016.7 |
| 20260503224836 | 13 | 304 | 4.8 | 6.4 | 0.00 | 0.00 | 0.00 | 34 | 1016.6 |
| 20260503224333 | 13 | 72 | 3.2 | 4.8 | 0.00 | 0.00 | 0.00 | 36 | 1016.7 |
| 20260503223831 | 13 | 71 | 1.6 | 11.3 | 0.00 | 0.00 | 0.00 | 36 | 1016.6 |
| 20260503223328 | 14 | 136 | 4.8 | 6.4 | 0.00 | 0.00 | 0.00 | 31 | 1016.7 |
| 20260503222824 | 13 | 304 | 6.4 | 9.7 | 0.00 | 0.00 | 0.00 | 31 | 1016.6 |
| 20260503222323 | 13 | 280 | 9.7 | 14.5 | 0.00 | 0.00 | 0.00 | 29 | 1016.7 |
| 20260503221820 | 14 | 41 | 3.2 | 9.7 | 0.00 | 0.00 | 0.00 | 33 | 1016.6 |
| 20260503221319 | 14 | 181 | 4.8 | 11.3 | 0.00 | 0.00 | 0.00 | 29 | 1016.5 |
| 20260503220814 | 14 | 276 | 4.8 | 6.4 | 0.00 | 0.00 | 0.00 | 33 | 1016.7 |
| 20260503220312 | 13 | 253 | 0.0 | 11.3 | 0.00 | 0.00 | 0.00 | 30 | 1016.6 |
| 20260503215808 | 14 | 291 | 6.4 | 11.3 | 0.00 | 0.00 | 0.00 | 34 | 1016.4 |
| 20260503215305 | 14 | 296 | 3.2 | 4.8 | 0.00 | 0.00 | 0.00 | 35 | 1016.4 |
| 20260503214803 | 13 | 56 | 1.6 | 6.4 | 0.00 | 0.00 | 0.00 | 33 | 1016.6 |
| 20260503214300 | 13 | 244 | 4.8 | 9.7 | 0.00 | 0.00 | 0.00 | 34 | 1016.4 |
| 20260503213758 | 13 | 252 | 3.2 | 6.4 | 0.00 | 0.00 | 0.00 | 34 | 1016.4 |
| 20260503213255 | 13 | 226 | 0.0 | 9.7 | 0.00 | 0.00 | 0.00 | 31 | 1016.4 |
| 20260503212752 | 13 | 305 | 3.2 | 6.4 | 0.00 | 0.00 | 0.00 | 29 | 1016.6 |
| 20260503212249 | 13 | 49 | 4.8 | 16.1 | 0.00 | 0.00 | 0.00 | 31 | 1016.6 |
| 20260503211747 | 13 | 321 | 4.8 | 4.8 | 0.00 | 0.00 | 0.00 | 30 | 1016.5 |
| 20260503211243 | 14 | 306 | 6.4 | 11.3 | 0.00 | 0.00 | 0.00 | 31 | 1016.6 |
| 20260503210738 | 13 | 268 | 3.2 | 9.7 | 0.00 | 0.00 | 0.00 | 32 | 1016.7 |
| 20260503210236 | 13 | 273 | 9.7 | 14.5 | 0.00 | 0.00 | 0.00 | 32 | 1016.7 |
| 20260503205731 | 14 | 322 | 6.4 | 9.7 | 0.00 | 0.00 | 0.00 | 33 | 1016.7 |
| 20260503205228 | 14 | 308 | 6.4 | 9.7 | 0.00 | 0.00 | 0.00 | 32 | 1016.9 |
| 20260503204724 | 13 | 305 | 1.6 | 4.8 | 0.00 | 0.00 | 0.00 | 36 | 1016.9 |
| 20260503204222 | 13 | 301 | 1.6 | 12.9 | 0.00 | 0.00 | 0.00 | 28 | 1016.9 |
| 20260503203719 | 14 | 121 | 6.4 | 12.9 | 0.00 | 0.00 | 0.00 | 29 | 1016.9 |
| 20260503203217 | 13 | 32 | 1.6 | 11.3 | 0.00 | 0.00 | 0.00 | 28 | 1017.1 |
| 20260503202714 | 13 | 273 | 3.2 | 3.2 | 0.00 | 0.00 | 0.00 | 32 | 1017.1 |
| 20260503202212 | 13 | 281 | 1.6 | 11.3 | 0.00 | 0.00 | 0.00 | 30 | 1017.1 |
| 20260503201709 | 13 | 327 | 8.0 | 12.9 | 0.00 | 0.00 | 0.00 | 27 | 1017.4 |
| 20260503201207 | 13 | 285 | 11.3 | 12.9 | 0.00 | 0.00 | 0.00 | 34 | 1017.5 |
| 20260503200702 | 13 | 86 | 3.2 | 11.3 | 0.00 | 0.00 | 0.00 | 33 | 1017.3 |
| 20260503200159 | 13 | 314 | 1.6 | 9.7 | 0.00 | 0.00 | 0.00 | 31 | 1017.4 |
| 20260503195656 | 12 | 304 | 3.2 | 11.3 | 0.00 | 0.00 | 0.00 | 33 | 1017.6 |
| 20260503195153 | 13 | 277 | 3.2 | 9.7 | 0.00 | 0.00 | 0.00 | 35 | 1017.9 |
| 20260503194650 | 13 | 42 | 4.8 | 9.7 | 0.00 | 0.00 | 0.00 | 33 | 1017.8 |
| 20260503194145 | 13 | 326 | 1.6 | 6.4 | 0.00 | 0.00 | 0.00 | 30 | 1017.9 |
| 20260503193642 | 13 | 322 | 16.1 | 17.7 | 0.00 | 0.00 | 0.00 | 35 | 1018.0 |
| 20260503193138 | 13 | 309 | 1.6 | 14.5 | 0.00 | 0.00 | 0.00 | 32 | 1017.7 |
| 20260503192634 | 12 | 302 | 3.2 | 9.7 | 0.00 | 0.00 | 0.00 | 32 | 1018.0 |
| 20260503192129 | 13 | 300 | 3.2 | 6.4 | 0.00 | 0.00 | 0.00 | 32 | 1018.2 |
| 20260503191626 | 13 | 310 | 8.0 | 11.3 | 0.00 | 0.00 | 0.00 | 34 | 1018.4 |
| 20260503191124 | 13 | 357 | 1.6 | 20.9 | 0.00 | 0.00 | 0.00 | 33 | 1018.0 |
| 20260503190620 | 12 | 48 | 8.0 | 16.1 | 0.00 | 0.00 | 0.00 | 36 | 1018.0 |
| 20260503190117 | 13 | 316 | 3.2 | 6.4 | 0.00 | 0.00 | 0.00 | 33 | 1018.0 |
| 20260503185614 | 12 | 335 | 4.8 | 9.7 | 0.00 | 0.00 | 0.00 | 31 | 1018.1 |
| 20260503185114 | 12 | 262 | 1.6 | 12.9 | 0.00 | 0.00 | 0.00 | 33 | 1018.2 |
| 20260503184609 | 12 | 306 | 9.7 | 14.5 | 0.00 | 0.00 | 0.00 | 36 | 1018.1 |
| 20260503184106 | 12 | 246 | 4.8 | 14.5 | 0.00 | 0.00 | 0.00 | 34 | 1018.2 |
| 20260503183603 | 12 | 313 | 3.2 | 4.8 | 0.00 | 0.00 | 0.00 | 31 | 1018.6 |
| 20260503183100 | 12 | 77 | 4.8 | 6.4 | 0.00 | 0.00 | 0.00 | 36 | 1018.5 |
| 20260503182558 | 12 | 300 | 1.6 | 11.3 | 0.00 | 0.00 | 0.00 | 29 | 1018.6 |
| 20260503182056 | 11 | 74 | 1.6 | 14.5 | 0.00 | 0.00 | 0.00 | 33 | 1018.6 |
| 20260503181553 | 11 | 160 | 0.0 | 11.3 | 0.00 | 0.00 | 0.00 | 34 | 1018.8 |
| 20260503181049 | 11 | 137 | 1.6 | 12.9 | 0.00 | 0.00 | 0.00 | 33 | 1019.0 |
| 20260503180547 | 11 | 294 | 8.0 | 17.7 | 0.00 | 0.00 | 0.00 | 34 | 1019.1 |
| 20260503180044 | 11 | 33 | 8.0 | 12.9 | 0.00 | 0.00 | 0.00 | 37 | 1019.2 |
| 20260503175541 | 11 | 45 | 6.4 | 11.3 | 0.00 | 0.00 | 0.00 | 40 | 1019.2 |
| 20260503175038 | 10 | 51 | 1.6 | 12.9 | 0.00 | 0.00 | 0.00 | 35 | 1018.9 |
| 20260503174536 | 10 | 283 | 0.0 | 4.8 | 0.00 | 0.00 | 0.00 | 33 | 1019.2 |
| 20260503174032 | 11 | 288 | 9.7 | 12.9 | 0.00 | 0.00 | 0.00 | 34 | 1019.2 |
| 20260503173527 | 11 | 149 | 4.8 | 6.4 | 0.00 | 0.00 | 0.00 | 34 | 1019.0 |
| 20260503173023 | 11 | 310 | 8.0 | 14.5 | 0.00 | 0.00 | 0.00 | 35 | 1019.1 |
| 20260503172521 | 10 | 239 | 1.6 | 9.7 | 0.00 | 0.00 | 0.00 | 38 | 1019.2 |
| 20260503172018 | 10 | 280 | 4.8 | 9.7 | 0.00 | 0.00 | 0.00 | 34 | 1019.4 |
| 20260503171514 | 10 | 313 | 8.0 | 12.9 | 0.00 | 0.00 | 0.00 | 39 | 1019.2 |
| 20260503171012 | 10 | 68 | 4.8 | 9.7 | 0.00 | 0.00 | 0.00 | 38 | 1019.4 |
| 20260503170508 | 10 | 134 | 3.2 | 11.3 | 0.00 | 0.00 | 0.00 | 35 | 1019.4 |
| 20260503150900 | 7 | 284 | 6.4 | 6.4 | 0.00 | 0.00 | 0.00 | 43 | 1020.4 |
| 20260503150356 | 8 | 309 | 6.4 | 12.9 | 0.00 | 0.00 | 0.00 | 39 | 1020.4 |
| 20260503131250 | 4 | 94 | 1.6 | 3.2 | 0.00 | 0.00 | 0.00 | 60 | 1019.8 |
| 20260503130748 | 5 | 53 | 6.4 | 11.3 | 0.00 | 0.00 | 0.00 | 59 | 1019.8 |
| 20260503130245 | 4 | 147 | 0.0 | 3.2 | 0.00 | 0.00 | 0.00 | 61 | 1020.2 |
| 20260503120211 | 0 | 144 | 3.2 | 4.8 | 0.00 | 0.00 | 0.00 | 82 | 1019.8 |
| 20260503110638 | -1 | 68 | 0.0 | 3.2 | 0.00 | 0.00 | 0.00 | 90 | 1018.9 |
| 20260503110136 | -1 | 104 | 1.6 | 1.6 | 0.00 | 0.00 | 0.00 | 92 | 1018.9 |
| 20260503081452 | 1 | 143 | 0.0 | 1.6 | 0.00 | 0.00 | 0.00 | 81 | 1017.7 |
| 20260503080949 | 1 | 143 | 0.0 | 0.0 | 0.00 | 0.00 | 0.00 | 82 | 1017.5 |
| 20260503080445 | 1 | 143 | 0.0 | 0.0 | 0.00 | 0.00 | 0.00 | 78 | 1017.6 |
| 20260503072921 | 1 | 114 | 1.6 | 3.2 | 0.00 | 0.00 | 0.00 | 76 | 1017.3 |
| 20260503072419 | 1 | 124 | 1.6 | 3.2 | 0.00 | 0.00 | 0.00 | 75 | 1017.2 |
| 20260503071916 | 1 | 129 | 3.2 | 4.8 | 0.00 | 0.00 | 0.00 | 76 | 1017.2 |
| 20260503071413 | 2 | 302 | 1.6 | 1.6 | 0.00 | 0.00 | 0.00 | 74 | 1016.9 |
| 20260503070909 | 2 | 284 | 6.4 | 6.4 | 0.00 | 0.00 | 0.00 | 73 | 1017.0 |
| 20260503070406 | 2 | 224 | 3.2 | 3.2 | 0.00 | 0.00 | 0.00 | 72 | 1017.0 |
| 20260503060332 | 2 | 91 | 1.6 | 3.2 | 0.00 | 0.00 | 0.00 | 74 | 1017.0 |
| 20260503054820 | 2 | 71 | 4.8 | 4.8 | 0.00 | 0.00 | 0.00 | 76 | 1017.0 |
| 20260503054316 | 2 | 103 | 1.6 | 3.2 | 0.00 | 0.00 | 0.00 | 76 | 1016.9 |
| 20260503053814 | 2 | 22 | 0.0 | 3.2 | 0.00 | 0.00 | 0.00 | 76 | 1016.9 |
| 20260503053312 | 2 | 335 | 1.6 | 1.6 | 0.00 | 0.00 | 0.00 | 76 | 1016.9 |
| 20260503052808 | 2 | 87 | 1.6 | 3.2 | 0.00 | 0.00 | 0.00 | 76 | 1016.9 |
| 20260503052306 | 2 | 70 | 3.2 | 3.2 | 0.00 | 0.00 | 0.00 | 77 | 1017.0 |
| 20260503051800 | 2 | 103 | 0.0 | 9.7 | 0.00 | 0.00 | 0.00 | 76 | 1016.9 |
| 20260503051257 | 2 | 6 | 0.0 | 3.2 | 0.00 | 0.00 | 0.00 | 77 | 1017.0 |
| 20260503050754 | 2 | 31 | 1.6 | 1.6 | 0.00 | 0.00 | 0.00 | 77 | 1017.0 |
| 20260503050250 | 2 | 98 | 0.0 | 3.2 | 0.00 | 0.00 | 0.00 | 76 | 1016.7 |
| 20260503045748 | 2 | 117 | 0.0 | 0.0 | 0.00 | 0.00 | 0.00 | 77 | 1016.7 |
| 20260503045246 | 2 | 103 | 1.6 | 3.2 | 0.00 | 0.00 | 0.00 | 76 | 1017.0 |
| 20260503044741 | 2 | 103 | 1.6 | 1.6 | 0.00 | 0.00 | 0.00 | 76 | 1016.6 |
| 20260503044239 | 2 | 73 | 1.6 | 1.6 | 0.00 | 0.00 | 0.00 | 76 | 1016.9 |
| 20260503043736 | 3 | 73 | 0.0 | 0.0 | 0.00 | 0.00 | 0.00 | 75 | 1016.9 |
| 20260503043233 | 3 | 99 | 1.6 | 3.2 | 0.00 | 0.00 | 0.00 | 74 | 1016.9 |
| 20260503042729 | 3 | 318 | 1.6 | 9.7 | 0.00 | 0.00 | 0.00 | 72 | 1016.7 |
| 20260503042226 | 3 | 299 | 0.0 | 0.0 | 0.00 | 0.00 | 0.00 | 74 | 1017.0 |
| 20260503041722 | 3 | 269 | 1.6 | 3.2 | 0.00 | 0.00 | 0.00 | 73 | 1016.9 |
| 20260503041220 | 3 | 289 | 1.6 | 3.2 | 0.00 | 0.00 | 0.00 | 73 | 1016.7 |
| 20260503040717 | 3 | 284 | 0.0 | 1.6 | 0.00 | 0.00 | 0.00 | 74 | 1017.0 |
| 20260503040215 | 3 | 46 | 1.6 | 1.6 | 0.00 | 0.00 | 0.00 | 72 | 1016.9 |
| 20260503035711 | 3 | 41 | 0.0 | 4.8 | 0.00 | 0.00 | 0.00 | 72 | 1017.0 |
| 20260503035209 | 3 | 239 | 1.6 | 4.8 | 0.00 | 0.00 | 0.00 | 71 | 1016.7 |
| 20260503034706 | 4 | 313 | 0.0 | 1.6 | 0.00 | 0.00 | 0.00 | 70 | 1016.9 |
| 20260503034203 | 3 | 216 | 0.0 | 1.6 | 0.00 | 0.00 | 0.00 | 71 | 1016.9 |
| 20260503033700 | 4 | 214 | 0.0 | 1.6 | 0.00 | 0.00 | 0.00 | 72 | 1016.9 |
| 20260503033158 | 4 | 224 | 0.0 | 1.6 | 0.00 | 0.00 | 0.00 | 70 | 1017.0 |
| 20260503032655 | 4 | 335 | 0.0 | 0.0 | 0.00 | 0.00 | 0.00 | 69 | 1016.7 |
| 20260503032154 | 4 | 48 | 1.6 | 3.2 | 0.00 | 0.00 | 0.00 | 69 | 1016.6 |
| 20260503031651 | 4 | 298 | 3.2 | 3.2 | 0.00 | 0.00 | 0.00 | 68 | 1016.6 |
| 20260503031149 | 4 | 288 | 1.6 | 3.2 | 0.00 | 0.00 | 0.00 | 68 | 1016.9 |
| 20260503030644 | 4 | 116 | 1.6 | 1.6 | 0.00 | 0.00 | 0.00 | 70 | 1017.0 |
| 20260503030141 | 4 | 110 | 0.0 | 1.6 | 0.00 | 0.00 | 0.00 | 69 | 1016.9 |
| 20260503025638 | 5 | 329 | 1.6 | 1.6 | 0.00 | 0.00 | 0.00 | 68 | 1017.1 |
| 20260503025136 | 5 | 354 | 0.0 | 1.6 | 0.00 | 0.00 | 0.00 | 68 | 1017.0 |
| 20260503024632 | 5 | 94 | 1.6 | 3.2 | 0.00 | 0.00 | 0.00 | 67 | 1016.9 |
| 20260503024130 | 5 | 356 | 0.0 | 0.0 | 0.00 | 0.00 | 0.00 | 66 | 1016.9 |
| 20260503023627 | 5 | 356 | 0.0 | 1.6 | 0.00 | 0.00 | 0.00 | 65 | 1016.9 |
| 20260503023124 | 5 | 113 | 0.0 | 0.0 | 0.00 | 0.00 | 0.00 | 65 | 1016.9 |
| 20260503022619 | 5 | 119 | 0.0 | 0.0 | 0.00 | 0.00 | 0.00 | 63 | 1016.7 |
| 20260503022114 | 5 | 104 | 1.6 | 1.6 | 0.00 | 0.00 | 0.00 | 65 | 1016.7 |
| 20260503021611 | 5 | 102 | 1.6 | 3.2 | 0.00 | 0.00 | 0.00 | 65 | 1016.9 |
| 20260503021108 | 5 | 100 | 1.6 | 3.2 | 0.00 | 0.00 | 0.00 | 61 | 1016.9 |
| 20260503020605 | 5 | 41 | 3.2 | 6.4 | 0.00 | 0.00 | 0.00 | 62 | 1016.7 |
| 20260503015559 | 5 | 12 | 0.0 | 1.6 | 0.00 | 0.00 | 0.00 | 61 | 1016.7 |
| 20260503015056 | 5 | 263 | 1.6 | 1.6 | 0.00 | 0.00 | 0.00 | 60 | 1016.4 |
| 20260503014552 | 5 | 315 | 0.0 | 3.2 | 0.00 | 0.00 | 0.00 | 57 | 1016.6 |
| 20260503014050 | 5 | 65 | 1.6 | 4.8 | 0.00 | 0.00 | 0.00 | 58 | 1016.5 |
| 20260503013547 | 5 | 305 | 3.2 | 6.4 | 0.00 | 0.00 | 0.00 | 59 | 1016.4 |
| 20260503013045 | 5 | 136 | 0.0 | 3.2 | 0.00 | 0.00 | 0.00 | 65 | 1016.5 |
| 20260503012542 | 5 | 324 | 1.6 | 6.4 | 0.00 | 0.00 | 0.00 | 64 | 1016.3 |
| 20260503012038 | 5 | 100 | 0.0 | 3.2 | 0.00 | 0.00 | 0.00 | 64 | 1016.3 |
| 20260503011535 | 5 | 125 | 1.6 | 3.2 | 0.00 | 0.00 | 0.00 | 66 | 1016.1 |
| 20260503011032 | 5 | 137 | 1.6 | 1.6 | 0.00 | 0.00 | 0.00 | 61 | 1015.9 |
| 20260503010528 | 5 | 139 | 0.0 | 1.6 | 0.00 | 0.00 | 0.00 | 62 | 1016.1 |
| 20260503010026 | 5 | 136 | 3.2 | 3.2 | 0.00 | 0.00 | 0.00 | 59 | 1016.1 |
| 20260503005523 | 5 | 123 | 1.6 | 3.2 | 0.00 | 0.00 | 0.00 | 61 | 1015.8 |
| 20260503005020 | 5 | 140 | 0.0 | 1.6 | 0.00 | 0.00 | 0.00 | 61 | 1016.0 |
| 20260503004516 | 5 | 140 | 1.6 | 3.2 | 0.00 | 0.00 | 0.00 | 59 | 1015.7 |
| 20260503004015 | 5 | 140 | 1.6 | 3.2 | 0.00 | 0.00 | 0.00 | 62 | 1015.6 |
| 20260503003511 | 5 | 140 | 1.6 | 3.2 | 0.00 | 0.00 | 0.00 | 59 | 1015.8 |
| 20260503003008 | 5 | 212 | 1.6 | 3.2 | 0.00 | 0.00 | 0.00 | 59 | 1015.6 |
| 20260503002505 | 5 | 129 | 1.6 | 3.2 | 0.00 | 0.00 | 0.00 | 60 | 1015.7 |
| 20260503002001 | 5 | 187 | 1.6 | 3.2 | 0.00 | 0.00 | 0.00 | 57 | 1015.5 |
| 20260503001458 | 5 | 120 | 1.6 | 3.2 | 0.00 | 0.00 | 0.00 | 63 | 1015.6 |
| 20260503000956 | 6 | 94 | 1.6 | 1.6 | 0.00 | 0.00 | 0.00 | 57 | 1015.8 |
| 20260503000453 | 6 | 54 | 0.0 | 0.0 | 0.00 | 0.00 | 0.00 | 56 | 1015.6 |
| 20260502235950 | 6 | 288 | 1.6 | 3.2 | 0.00 | 0.00 | 0.00 | 54 | 1015.5 |
| 20260502235446 | 6 | 129 | 3.2 | 4.8 | 0.00 | 0.00 | 0.00 | 55 | 1015.6 |
| 20260502234944 | 6 | 278 | 0.0 | 3.2 | 0.00 | 0.00 | 0.00 | 55 | 1015.7 |
| 20260502234440 | 6 | 297 | 6.4 | 11.3 | 0.00 | 0.00 | 0.00 | 53 | 1015.6 |
| 20260502233938 | 6 | 52 | 6.4 | 12.9 | 0.00 | 0.00 | 0.00 | 53 | 1015.6 |
| 20260502233433 | 7 | 1 | 1.6 | 4.8 | 0.00 | 0.00 | 0.00 | 52 | 1015.6 |
| 20260502232930 | 6 | 77 | 1.6 | 4.8 | 0.00 | 0.00 | 0.00 | 55 | 1015.4 |
| 20260502232427 | 6 | 303 | 0.0 | 3.2 | 0.00 | 0.00 | 0.00 | 51 | 1015.4 |
| 20260502231924 | 6 | 290 | 3.2 | 3.2 | 0.00 | 0.00 | 0.00 | 54 | 1015.4 |
| 20260502231421 | 7 | 312 | 3.2 | 6.4 | 0.00 | 0.00 | 0.00 | 51 | 1015.3 |
| 20260502230919 | 7 | 323 | 3.2 | 4.8 | 0.00 | 0.00 | 0.00 | 51 | 1015.3 |
| 20260502230417 | 7 | 324 | 3.2 | 4.8 | 0.00 | 0.00 | 0.00 | 50 | 1015.3 |